STARLINK-32243, 60367

Orbit data source: Space-Track

STARLINK-32243, 60367 is a payload satellite owned by SpaceX/Seattle (US) in LEO that was launched on Sun, 04 Aug 2024 UTC via an FALCON 9 launch vehicle from the Air Force Western Test Range (AFWTR). Payload-class satellites include a variety of spacecraft equipped with specific instruments for various scientific and technological missions. These include communications satellites like Starlink; space stations such as the ISS; scientific satellites like the Hubble; Earth observation satellites from companies like Planet Labs, Umbra, and HawkEye 360; GPS; miniature CubeSats for education and research; and military/defense satellites.

Loading next visibility...
Identifier
60367, 2024-138N
Orbit
LEO
Country
Flag of USUS
Related business
Manufacturer
SpaceX/Seattle
Mission
Operational Commercial Communications
Bus & Motor
STARLINK V2M, Unknown motor
Mass
730 kg wet, ~700 kg dry
Launch date (UTC)
2024-08-04 (1 year ago)
Launch vehicle
FALCON 9
Launch site
Air Force Western Test Range (AFWTR)
Object type
Payload
Rocket body
Debris
Shape & HBR
Box + 2 Pan, 14.5 m
Radar Cross Section
33.884 m², Large (>1 m²)

Expand to show TLE details & history
Last TLE update: 8 hours ago

TLE from 8 hours ago
0 STARLINK-32243
1 60367U 24138N   25258.56095600  .00000716  00000-0  36308-4 0  9991
2 60367  53.1628  43.1244 0001097  85.4452 274.6674 15.30200184 63810
Epoch: 2025-09-15T13:27Z
TLE epoch observation values (Epoch: 2025-09-15T13:27:46.598Z)
Latitude
-0.00002°
Longitude
-153.58362°
Altitude
476.053 km
Speed
7.629 km/s
True Right ascension
02h 52m 29s
True Declination
0° 00' 00"
Sunlit
Object was in full shadow at epoch
Visualization orbit readout
Latitude
Unknown
Longitude
Unknown
Altitude
Unknown
Speed
Unknown
Apparent Right ascension
Unknown
Apparent Declination
Unknown
Sunlit
N/A
Visualization observer readout
Local Sidereal Time
13:55:16
Azimuth
Unknown
Elevation
Unknown
Doppler factor
Unknown
Orbital elements
Apogee altitude
476.222 km
Perigee altitude
474.719 km
Semi-major axis
6,853.607 km
Eccentricity
0.00011
Inclination
53.1628°
RAAN
43.1244°
Arg. of periapsis
85.4452°
True anomaly
274.65487°
Mean anomaly
274.6674°
Eccentric anomaly
274.66114°
Mean motion
3.82529 °/min
Orbital period
94.11 mins
BSTAR
0.000036308
Loading maneuver chart data...
Computing Atmospheric mass density...
Loading historical data...
Loading historical data...
Loading historical data...
Loading historical data...
Loading historical data...
Loading historical data...
Loading historical data...

Documentation

Showing up to 5 results
|